STARLINK A (59922 NORAD) Tracking and Keplerian Element Data

This shows tracking and keplerian element data for the satellite.

Feedback or suggestion? Click here.




ElementValue
Catalog59922
NameSTARLINK A
Epoch Orbit224
Epoch Day159.91667824
Epoch Year2024
RAAN24.0578
Inclination43.0035
Eccentricity0.0002197
Argument of Perigee277.5537
Mean Anonmoly143.228
Mean Motion15.9229462
Decay Rate-0.0089379
L11 59922U 24106A 24159.91667824 -.00893790 24696-3 -25533-2 0 9992
L22 59922 43.0035 24.0578 0002197 277.5537 143.2280 15.92294620 2243



Live tracking and technical data element details for STARLINK A (NORAD 59922). STARLINK A can be tracked NOW for your location showing map with azimuth and elevation plus other details from your city location.







IsCatalogInMostPopularTable: catalog: 59922, numindb: 13
Update: records affected: 1



GetName: 59922 STARLINK A

Hit Count: updated at: Wed, 24 Jul 2024 23:36:46 GMT